�������l�o���
Date,Time,MP-1(��Sv/h),MP-2(��Sv/h),MP-3(��Sv/h),MP-4(��Sv/h),MP-5(��Sv/h),MP-6(��Sv/h),MP-7(��Sv/h),MP-8(��Sv/h),����,����(m/s),���J
2023/12/30,00:00,0.521,0.789,0.492,0.998,0.710,0.316,0.567,0.531,��,9.9,��
2023/12/30,00:10,0.520,0.787,0.491,0.997,0.711,0.316,0.568,0.530,���k��,11.0,��
2023/12/30,00:20,0.521,0.791,0.492,0.999,0.712,0.315,0.566,0.530,���k��,9.3,��
2023/12/30,00:30,0.520,0.789,0.492,0.998,0.710,0.316,0.567,0.530,���k��,8.2,��
2023/12/30,00:40,0.520,0.787,0.492,0.999,0.710,0.317,0.568,0.529,��,9.0,��
2023/12/30,00:50,0.520,0.790,0.493,0.998,0.709,0.317,0.568,0.529,��,9.2,��
2023/12/30,01:00,0.520,0.788,0.491,0.995,0.709,0.317,0.566,0.531,��,8.9,��
2023/12/30,01:10,0.520,0.788,0.493,0.998,0.708,0.315,0.566,0.529,��,8.7,��
2023/12/30,01:20,0.520,0.788,0.491,0.997,0.710,0.316,0.567,0.529,��,7.4,��
2023/12/30,01:30,0.522,0.787,0.492,0.998,0.711,0.315,0.567,0.529,��,6.7,��
2023/12/30,01:40,0.520,0.788,0.491,0.997,0.711,0.315,0.566,0.530,��,6.3,��
2023/12/30,01:50,0.519,0.787,0.493,0.996,0.709,0.316,0.568,0.529,��,5.3,��
2023/12/30,02:00,0.520,0.790,0.492,0.997,0.711,0.316,0.565,0.531,��,5.2,��
2023/12/30,02:10,0.520,0.789,0.490,0.996,0.711,0.316,0.564,0.529,��,6.5,��
2023/12/30,02:20,0.519,0.788,0.492,0.996,0.712,0.316,0.567,0.530,���k��,7.6,��
2023/12/30,02:30,0.521,0.788,0.490,0.996,0.712,0.316,0.567,0.529,���k��,7.2,��
2023/12/30,02:40,0.520,0.788,0.492,0.999,0.709,0.317,0.566,0.529,���k��,6.5,��
2023/12/30,02:50,0.519,0.789,0.492,0.998,0.709,0.316,0.567,0.529,��,7.9,��
2023/12/30,03:00,0.519,0.788,0.492,0.997,0.710,0.314,0.566,0.529,��,8.5,��
2023/12/30,03:10,0.520,0.788,0.492,0.998,0.711,0.315,0.565,0.528,��,8.4,��
2023/12/30,03:20,0.519,0.788,0.492,0.998,0.712,0.315,0.566,0.528,��,9.2,��
2023/12/30,03:30,0.521,0.787,0.492,0.996,0.710,0.317,0.565,0.528,��,8.5,��
2023/12/30,03:40,0.519,0.789,0.492,0.998,0.710,0.316,0.566,0.529,��,9.2,��
2023/12/30,03:50,0.519,0.789,0.493,0.997,0.710,0.316,0.565,0.530,��,8.3,��
2023/12/30,04:00,0.521,0.788,0.491,0.996,0.710,0.316,0.565,0.529,��,9.1,��
2023/12/30,04:10,0.519,0.790,0.491,0.998,0.709,0.317,0.565,0.529,��,9.0,��
2023/12/30,04:20,0.519,0.789,0.492,1.000,0.710,0.316,0.566,0.529,��,8.7,��
2023/12/30,04:30,0.520,0.788,0.492,0.999,0.710,0.318,0.565,0.528,��,9.0,��
2023/12/30,04:40,0.520,0.789,0.491,0.996,0.712,0.316,0.566,0.528,��,7.6,��
2023/12/30,04:50,0.520,0.788,0.490,0.996,0.710,0.316,0.567,0.529,��,8.2,��
2023/12/30,05:00,0.520,0.786,0.491,0.997,0.709,0.316,0.566,0.528,��,7.3,��
2023/12/30,05:10,0.519,0.788,0.491,0.998,0.712,0.316,0.567,0.529,���k��,7.6,��
2023/12/30,05:20,0.522,0.789,0.492,0.997,0.710,0.315,0.567,0.528,���k��,7.2,��
2023/12/30,05:30,0.519,0.787,0.491,0.998,0.713,0.315,0.566,0.528,���k��,5.0,��
2023/12/30,05:40,0.520,0.788,0.491,0.999,0.710,0.315,0.566,0.530,���k��,5.1,��
2023/12/30,05:50,0.519,0.787,0.492,0.999,0.708,0.317,0.566,0.529,�k��,3.9,��
2023/12/30,06:00,0.521,0.789,0.492,0.997,0.710,0.316,0.567,0.528,�k��,4.7,��
2023/12/30,06:10,0.521,0.790,0.492,0.998,0.710,0.316,0.566,0.529,���k��,6.5,��
2023/12/30,06:20,0.519,0.788,0.491,0.999,0.709,0.316,0.568,0.528,�k��,7.4,��
2023/12/30,06:30,0.520,0.787,0.491,0.998,0.711,0.316,0.567,0.529,�k��,8.5,��
2023/12/30,06:40,0.521,0.788,0.493,0.997,0.711,0.317,0.567,0.529,�k��,9.8,��
2023/12/30,06:50,0.520,0.790,0.491,0.998,0.712,0.316,0.567,0.529,�k��,7.9,��
2023/12/30,07:00,0.520,0.789,0.492,0.997,0.711,0.316,0.568,0.529,�k��,7.2,��
2023/12/30,07:10,0.519,0.786,0.491,0.998,0.710,0.316,0.567,0.530,�k��,6.6,��
2023/12/30,07:20,0.521,0.789,0.492,0.998,0.709,0.316,0.568,0.530,�k��,7.0,��
2023/12/30,07:30,0.520,0.789,0.490,0.998,0.711,0.316,0.566,0.529,�k��,6.8,��
2023/12/30,07:40,0.519,0.788,0.491,0.997,0.710,0.315,0.567,0.529,�k��,5.3,��
2023/12/30,07:50,0.522,0.788,0.492,0.996,0.709,0.316,0.567,0.529,�k��,5.2,��
2023/12/30,08:00,0.521,0.789,0.492,0.998,0.710,0.315,0.567,0.529,�k��,5.5,��
2023/12/30,08:10,0.520,0.790,0.490,0.997,0.709,0.316,0.566,0.528,��,1.9,��
2023/12/30,08:20,0.521,0.791,0.491,0.996,0.711,0.315,0.567,0.528,�k��,0.9,��
2023/12/30,08:30,0.520,0.790,0.490,0.999,0.709,0.315,0.567,0.528,��,1.9,��
2023/12/30,08:40,0.523,0.790,0.491,0.997,0.709,0.316,0.566,0.529,���k��,3.5,��
2023/12/30,08:50,0.521,0.788,0.491,0.998,0.711,0.317,0.567,0.530,�k��,5.2,��
2023/12/30,09:00,0.520,0.791,0.492,0.998,0.709,0.315,0.567,0.529,���k��,5.4,��
2023/12/30,09:10,0.520,0.788,0.492,0.997,0.711,0.314,0.567,0.528,���k��,5.6,��
2023/12/30,09:20,0.520,0.789,0.492,0.996,0.709,0.317,0.566,0.528,���k��,3.9,��
2023/12/30,09:30,0.520,0.788,0.491,0.998,0.710,0.316,0.567,0.530,���k��,4.2,��
2023/12/30,09:40,0.519,0.786,0.493,0.999,0.709,0.316,0.566,0.529,���k��,2.9,��
2023/12/30,09:50,0.522,0.788,0.493,0.999,0.711,0.316,0.563,0.529,���k��,2.6,��
2023/12/30,10:00,0.521,0.787,0.494,0.999,0.711,0.316,0.565,0.529,��,2.0,��
2023/12/30,10:10,0.522,0.788,0.492,0.997,0.711,0.318,0.564,0.530,���쐼,1.5,��
2023/12/30,10:20,0.522,0.789,0.493,0.998,0.709,0.317,0.564,0.529,��,1.2,��
2023/12/30,10:30,0.520,0.787,0.493,1.000,0.711,0.317,0.566,0.528,��,1.4,��
2023/12/30,10:40,0.522,0.789,0.492,0.999,0.710,0.317,0.565,0.529,���k��,0.6,��
2023/12/30,10:50,0.519,0.787,0.493,0.998,0.711,0.318,0.565,0.528,�k��,4.4,��
2023/12/30,11:00,0.520,0.786,0.494,0.999,0.713,0.315,0.566,0.528,���k��,3.4,��
2023/12/30,11:10,0.519,0.786,0.492,0.997,0.711,0.317,0.564,0.530,�k��,2.5,��
2023/12/30,11:20,0.520,0.789,0.492,0.998,0.714,0.317,0.564,0.528,��쐼,0.9,��
2023/12/30,11:30,0.519,0.788,0.493,0.998,0.713,0.315,0.564,0.530,���쓌,2.2,��
2023/12/30,11:40,0.521,0.787,0.492,0.999,0.711,0.316,0.566,0.530,��,1.8,��
2023/12/30,11:50,0.520,0.790,0.492,0.998,0.712,0.316,0.565,0.529,���쓌,3.4,��
2023/12/30,12:00,0.519,0.787,0.493,0.998,0.713,0.316,0.563,0.528,�쓌,2.2,��
2023/12/30,12:10,0.521,0.789,0.493,0.997,0.715,0.317,0.565,0.530,���쓌,2.9,��
2023/12/30,12:20,0.522,0.788,0.494,1.000,0.713,0.317,0.565,0.530,�쓌,3.5,��
2023/12/30,12:30,0.520,0.789,0.492,0.999,0.714,0.317,0.566,0.529,�쓌,3.9,��
2023/12/30,12:40,0.521,0.788,0.492,0.998,0.714,0.317,0.565,0.529,�쓌,3.7,��
2023/12/30,12:50,0.521,0.791,0.495,0.999,0.714,0.317,0.565,0.530,�쓌,2.8,��
2023/12/30,13:00,0.519,0.788,0.492,0.999,0.714,0.318,0.566,0.528,���쓌,3.6,��
2023/12/30,13:10,0.520,0.790,0.491,0.999,0.713,0.318,0.566,0.527,�쓌,3.0,��
2023/12/30,13:20,0.520,0.789,0.492,1.000,0.714,0.319,0.567,0.528,�쓌,3.6,��
2023/12/30,13:30,0.519,0.790,0.492,0.999,0.714,0.318,0.566,0.528,���쓌,4.1,��
2023/12/30,13:40,0.521,0.791,0.491,0.999,0.714,0.317,0.567,0.527,���쓌,2.5,��
2023/12/30,13:50,0.520,0.788,0.493,0.999,0.713,0.318,0.566,0.527,���쓌,2.6,��
2023/12/30,14:00,0.521,0.789,0.492,0.998,0.714,0.317,0.564,0.527,��,2.6,��
2023/12/30,14:10,0.519,0.788,0.493,1.000,0.714,0.316,0.568,0.528,���쓌,3.7,��
2023/12/30,14:20,0.521,0.789,0.492,0.997,0.715,0.316,0.566,0.526,��,3.0,��
2023/12/30,14:30,0.522,0.789,0.491,1.000,0.714,0.318,0.567,0.528,���쓌,3.1,��
2023/12/30,14:40,0.520,0.786,0.491,1.000,0.713,0.318,0.568,0.527,���쓌,2.8,��
2023/12/30,14:50,0.522,0.789,0.492,0.999,0.715,0.317,0.566,0.528,���쓌,2.3,��
2023/12/30,15:00,0.520,0.790,0.492,1.000,0.713,0.317,0.566,0.528,���쓌,2.2,��
2023/12/30,15:10,0.521,0.793,0.492,1.000,0.712,0.317,0.565,0.528,���쓌,2.5,��
2023/12/30,15:20,0.521,0.790,0.493,0.997,0.714,0.318,0.566,0.530,��,1.8,��
2023/12/30,15:30,0.519,0.790,0.492,0.998,0.715,0.317,0.566,0.531,��,1.4,��
2023/12/30,15:40,0.520,0.793,0.492,0.999,0.712,0.316,0.566,0.531,���쓌,1.9,��
2023/12/30,15:50,0.519,0.793,0.493,0.998,0.713,0.318,0.568,0.530,���쓌,2.6,��
2023/12/30,16:00,0.519,0.793,0.494,0.999,0.712,0.319,0.567,0.531,���쓌,3.4,��
2023/12/30,16:10,0.522,0.792,0.492,1.000,0.713,0.319,0.568,0.530,���쓌,3.2,��
2023/12/30,16:20,0.523,0.792,0.493,0.996,0.715,0.318,0.567,0.529,�쓌,1.9,��
2023/12/30,16:30,0.523,0.790,0.494,0.999,0.714,0.317,0.567,0.529,�쓌,2.0,��
2023/12/30,16:40,0.523,0.794,0.492,0.999,0.714,0.316,0.566,0.529,���쓌,2.6,��
2023/12/30,16:50,0.520,0.793,0.493,0.999,0.713,0.318,0.565,0.529,���쓌,1.7,��
2023/12/30,17:00,0.522,0.790,0.493,0.998,0.714,0.317,0.565,0.530,���쓌,1.4,��
2023/12/30,17:10,0.521,0.792,0.493,0.997,0.714,0.316,0.567,0.529,���쓌,2.6,��
2023/12/30,17:20,0.522,0.794,0.493,0.999,0.714,0.316,0.566,0.529,���쓌,2.9,��
2023/12/30,17:30,0.521,0.792,0.493,0.998,0.713,0.317,0.565,0.530,���쓌,2.2,��
2023/12/30,17:40,0.523,0.791,0.494,0.998,0.712,0.317,0.567,0.528,�쓌,1.5,��
2023/12/30,17:50,0.521,0.791,0.493,1.000,0.713,0.317,0.565,0.529,��쓌,0.8,��
2023/12/30,18:00,0.523,0.790,0.493,0.999,0.711,0.316,0.565,0.530,�쓌,0.9,��
2023/12/30,18:10,0.523,0.789,0.494,0.999,0.713,0.316,0.566,0.527,��쓌,0.6,��
2023/12/30,18:20,0.521,0.790,0.493,0.998,0.713,0.318,0.566,0.531,��,0.9,��
2023/12/30,18:30,0.523,0.793,0.495,0.999,0.715,0.315,0.566,0.529,�쓌,0.6,��
2023/12/30,18:40,0.523,0.791,0.493,0.997,0.713,0.317,0.566,0.530,�k��,1.1,��
2023/12/30,18:50,0.520,0.790,0.493,1.000,0.711,0.317,0.565,0.530,�k��,2.0,��
2023/12/30,19:00,0.522,0.791,0.495,0.999,0.713,0.317,0.567,0.531,�k�k��,1.7,��
2023/12/30,19:10,0.521,0.789,0.491,0.999,0.712,0.318,0.566,0.529,�k�k��,2.6,��
2023/12/30,19:20,0.523,0.790,0.495,0.998,0.712,0.317,0.565,0.528,�k�k��,3.4,��
2023/12/30,19:30,0.524,0.791,0.494,0.999,0.713,0.317,0.566,0.529,�k�k��,4.6,��
2023/12/30,19:40,0.523,0.792,0.493,0.999,0.713,0.316,0.566,0.529,�k�k��,4.1,��
2023/12/30,19:50,0.523,0.793,0.491,0.998,0.713,0.315,0.567,0.526,�k��,4.7,��
2023/12/30,20:00,0.524,0.794,0.493,0.997,0.713,0.318,0.566,0.530,�k��,4.4,��
2023/12/30,20:10,0.523,0.792,0.492,1.001,0.713,0.317,0.565,0.530,�k��,3.9,��
2023/12/30,20:20,0.522,0.790,0.496,0.999,0.712,0.316,0.565,0.530,�k��,3.1,��
2023/12/30,20:30,0.522,0.792,0.493,1.000,0.713,0.317,0.566,0.528,�k��,3.7,��
2023/12/30,20:40,0.522,0.792,0.491,0.998,0.712,0.316,0.566,0.529,���k��,3.0,��
2023/12/30,20:50,0.522,0.791,0.493,1.000,0.713,0.318,0.566,0.530,�k��,2.3,��
2023/12/30,21:00,0.523,0.793,0.493,1.000,0.714,0.317,0.565,0.529,�k��,2.6,��
2023/12/30,21:10,0.521,0.791,0.493,0.999,0.713,0.317,0.566,0.529,�k��,2.5,��
2023/12/30,21:20,0.521,0.794,0.493,0.999,0.712,0.317,0.566,0.530,�k��,3.1,��
2023/12/30,21:30,0.521,0.791,0.493,1.000,0.713,0.316,0.566,0.531,�k�k��,2.5,��
2023/12/30,21:40,0.521,0.791,0.494,1.000,0.712,0.317,0.565,0.530,�k��,3.3,��
2023/12/30,21:50,0.521,0.791,0.495,0.998,0.713,0.317,0.565,0.530,�k�k��,3.2,��
2023/12/30,22:00,0.523,0.793,0.493,0.999,0.713,0.318,0.564,0.528,�k��,3.7,��
2023/12/30,22:10,0.523,0.794,0.494,1.000,0.714,0.319,0.565,0.529,�k�k��,4.3,��
2023/12/30,22:20,0.523,0.793,0.494,0.999,0.712,0.318,0.566,0.529,�k�k��,4.7,��
2023/12/30,22:30,0.523,0.792,0.496,0.997,0.714,0.317,0.566,0.531,�k�k��,4.0,��
2023/12/30,22:40,0.523,0.792,0.496,1.001,0.713,0.317,0.565,0.530,�k�k��,4.0,��
2023/12/30,22:50,0.523,0.791,0.495,1.001,0.713,0.317,0.567,0.530,�k�k��,4.4,��
2023/12/30,23:00,0.523,0.792,0.494,0.999,0.714,0.316,0.566,0.529,�k�k��,4.4,��
2023/12/30,23:10,0.525,0.791,0.495,0.999,0.714,0.318,0.565,0.529,�k�k��,5.0,��
2023/12/30,23:20,0.523,0.793,0.495,1.000,0.714,0.317,0.566,0.530,�k�k��,5.5,��
2023/12/30,23:30,0.522,0.791,0.494,1.000,0.713,0.317,0.566,0.530,�k�k��,5.4,��
2023/12/30,23:40,0.523,0.793,0.494,0.999,0.713,0.317,0.568,0.530,�k�k��,5.2,��
2023/12/30,23:50,0.524,0.792,0.493,1.001,0.713,0.318,0.566,0.531,�k�k��,6.4,��
